Weather History for Midland Airpark, TX

Change the Weather History Date:

Saturday, July 13, 2013

  Actual Average (KMAF) Record (KMAF)
Temperature  
Mean Temperature 86 °F 82 °F  
Max Temperature 100 °F 95 °F 107 °F (1933)
Min Temperature 74 °F 70 °F 49 °F (1936)
Cooling Degree Days 22 17  
Month to date cooling degree days 221  
Year to date cooling degree days 1071  
Since 1 June cooling degree days 682  
Growing Degree Days 36 (Base 50)    
Moisture  
Dew Point 47 °F    
Average Humidity 26    
Maximum Humidity 46    
Minimum Humidity 12    
Precipitation  
Precipitation 0.00 in 0.06 in 0.92 in (1939)
Month to date precipitation 0.77  
Year to date precipitation 6.83  
Sea Level Pressure  
Sea Level Pressure 30.03 in    
Wind  
Wind Speed 7 mph (SSE)    
Max Wind Speed 16 mph    
Max Gust Speed 22 mph    
Visibility 10 miles    
Events      
T = Trace of Precipitation, MM = Missing Value Source: NWS Daily Summary

Daily Weather History Graph

Daily Weather History Graph

Search for Another Location

Airport:

Trip Planner

Search our weather history database for the weather conditions in past years. The results will help you decide how hot, cold, wet, or windy it might be!

Date:

Astronomy

Jul. 13, 2013 Rise Set
Actual Time 6:51 AM CDT 8:56 PM CDT
Civil Twilight 6:24 AM CDT 9:23 PM CDT
Nautical Twilight 5:50 AM CDT 9:57 PM CDT
Astronomical Twilight 5:14 AM CDT 10:33 PM CDT
Moon 11:48 AM CDT (7/13) No Moon Set
Length of Visible Light 14h 59m
Length of Day
14h 04m
Waxing Crescent, 26% of the Moon is Illuminated
Jul 13
Waxing Crescent
Jul 15
First Quarter
Jul 22
Full
Jul 29
Last Quarter
Aug 6
New

Hourly Weather History & Observations

Time (CDT) Temp. Heat Index Dew Point Humidity Pressure Visibility Wind Dir Wind Speed Gust Speed Precip Events Conditions
12:15 AM 86.9 °F - 48.6 °F 26% 30.01 in 10.0 mi South 8.1 mph - N/A   Clear
12:35 AM 85.6 °F - 48.7 °F 28% 30.02 in 10.0 mi SSE 8.1 mph - N/A   Clear
12:55 AM 85.1 °F - 48.9 °F 28% 30.03 in 10.0 mi SSE 8.1 mph - N/A   Clear
1:15 AM 84.4 °F - 49.1 °F 29% 30.03 in 10.0 mi SSE 5.8 mph - N/A   Clear
1:35 AM 83.7 °F - 49.5 °F 30% 30.03 in 10.0 mi South 8.1 mph - N/A   Clear
1:55 AM 83.3 °F - 50.0 °F 31% 30.03 in 10.0 mi South 6.9 mph - N/A   Clear
2:15 AM 82.6 °F - 50.0 °F 32% 30.04 in 10.0 mi South 5.8 mph - N/A   Clear
2:35 AM 81.7 °F - 50.4 °F 34% 30.04 in 10.0 mi South 4.6 mph - N/A   Clear
2:55 AM 80.8 °F - 51.1 °F 35% 30.04 in 10.0 mi South 4.6 mph - N/A   Clear
3:15 AM 80.2 °F - 51.8 °F 37% 30.04 in 10.0 mi South 3.5 mph - N/A   Clear
3:35 AM 80.1 °F - 51.8 °F 37% 30.04 in 10.0 mi Calm Calm - N/A   Clear
3:55 AM 79.2 °F - 51.8 °F 38% 30.04 in 10.0 mi Calm Calm - N/A   Clear
4:15 AM 78.8 °F - 52.0 °F 39% 30.04 in 10.0 mi Calm Calm - N/A   Clear
4:35 AM 78.1 °F - 52.2 °F 40% 30.04 in 10.0 mi Calm Calm - N/A   Clear
4:55 AM 78.3 °F - 52.0 °F 40% 30.04 in 10.0 mi Calm Calm - N/A   Clear
5:15 AM 78.4 °F - 52.0 °F 40% 30.04 in 10.0 mi Calm Calm - N/A   Clear
5:35 AM 77.4 °F - 51.8 °F 41% 30.04 in 10.0 mi Calm Calm - N/A   Clear
5:55 AM 76.1 °F - 52.2 °F 43% 30.05 in 10.0 mi Calm Calm - N/A   Clear
6:15 AM 76.5 °F - 52.7 °F 43% 30.05 in 10.0 mi Calm Calm - N/A   Clear
6:35 AM 76.3 °F - 52.7 °F 44% 30.05 in 10.0 mi SSE 3.5 mph - N/A   Clear
6:55 AM 74.5 °F - 52.7 °F 46% 30.06 in 10.0 mi Calm Calm - N/A   Clear
7:15 AM 75.4 °F - 52.7 °F 45% 30.07 in 7.0 mi Calm Calm - N/A   Clear
7:35 AM 77.5 °F - 53.2 °F 43% 30.07 in 7.0 mi SE 3.5 mph - N/A   Clear
7:55 AM 77.9 °F - 52.7 °F 41% 30.08 in 7.0 mi SE 4.6 mph - N/A   Clear
8:15 AM 78.8 °F - 53.6 °F 42% 30.08 in 7.0 mi SSE 4.6 mph - N/A   Clear
8:35 AM 80.1 °F 80.1 °F 55.0 °F 42% 30.08 in 7.0 mi SSE 8.1 mph - N/A   Clear
8:55 AM 81.3 °F 81.1 °F 56.1 °F 42% 30.09 in 7.0 mi SSE 10.4 mph - N/A   Clear
9:15 AM 82.9 °F 82.4 °F 56.8 °F 41% 30.09 in 7.0 mi South 9.2 mph 16.1 mph N/A   Clear
9:35 AM 85.1 °F 84.1 °F 56.5 °F 38% 30.10 in 7.0 mi South 12.7 mph - N/A   Clear
9:55 AM 87.1 °F 85.5 °F 55.8 °F 34% 30.10 in 5.0 mi South 10.4 mph 16.1 mph N/A   Haze
10:15 AM 88.5 °F 86.7 °F 55.2 °F 32% 30.09 in 10.0 mi South 11.5 mph - N/A   Clear
10:35 AM 88.7 °F 86.7 °F 54.5 °F 31% 30.09 in 7.0 mi South 11.5 mph - N/A   Clear
10:55 AM 89.6 °F 87.5 °F 54.3 °F 30% 30.09 in 7.0 mi SSE 10.4 mph 16.1 mph N/A   Clear
11:15 AM 90.1 °F 87.9 °F 53.6 °F 29% 30.09 in 10.0 mi SSE 10.4 mph 16.1 mph N/A   Clear
11:35 AM 91.6 °F 89.1 °F 53.2 °F 27% 30.09 in 10.0 mi South 10.4 mph 16.1 mph N/A   Clear
11:55 AM 91.8 °F 89.3 °F 53.2 °F 27% 30.08 in 10.0 mi SSE 9.2 mph - N/A   Clear
12:15 PM 93.4 °F - 50.4 °F 23% 30.07 in 10.0 mi SE 11.5 mph 16.1 mph N/A   Clear
12:35 PM 94.1 °F - 48.4 °F 21% 30.07 in 10.0 mi SSE 8.1 mph 16.1 mph N/A   Clear
12:55 PM 95.0 °F - 48.7 °F 21% 30.07 in 10.0 mi SSE 10.4 mph 17.3 mph N/A   Clear
1:15 PM 94.5 °F - 50.0 °F 22% 30.06 in 10.0 mi SE 13.8 mph - N/A   Clear
1:35 PM 96.3 °F - 48.4 °F 20% 30.06 in 10.0 mi SSE 9.2 mph 16.1 mph N/A   Clear
1:55 PM 95.9 °F - 47.8 °F 19% 30.04 in 10.0 mi South 9.2 mph - N/A   Clear
2:15 PM 97.5 °F - 46.2 °F 17% 30.04 in 10.0 mi SSE 4.6 mph - N/A   Clear
2:35 PM 97.7 °F - 43.2 °F 15% 30.03 in 10.0 mi SE 12.7 mph 17.3 mph N/A   Clear
2:55 PM 99.0 °F - 39.6 °F 13% 30.02 in 10.0 mi SSE 6.9 mph 18.4 mph N/A   Clear
3:15 PM 99.0 °F - 40.3 °F 13% 30.02 in 10.0 mi ESE 16.1 mph - N/A   Clear
3:35 PM 98.1 °F - 38.7 °F 13% 30.01 in 10.0 mi South 6.9 mph 11.5 mph N/A   Clear
3:55 PM 99.0 °F - 40.3 °F 13% 30.00 in 10.0 mi SSE 11.5 mph - N/A   Clear
4:15 PM 98.6 °F - 38.7 °F 13% 30.00 in 10.0 mi SSE 4.6 mph 21.9 mph N/A   Clear
4:35 PM 99.5 °F - 39.4 °F 13% 30.00 in 10.0 mi SE 11.5 mph 18.4 mph N/A   Clear
4:55 PM 99.7 °F - 38.5 °F 12% 29.99 in 10.0 mi ESE 8.1 mph 16.1 mph N/A   Clear
5:15 PM 99.3 °F - 39.2 °F 13% 29.99 in 10.0 mi East 4.6 mph - N/A   Clear
5:35 PM 99.5 °F - 38.3 °F 12% 29.99 in 10.0 mi SSE 11.5 mph 19.6 mph N/A   Clear
5:55 PM 99.1 °F - 39.9 °F 13% 29.97 in 10.0 mi ESE 9.2 mph - N/A   Clear
6:15 PM 98.8 °F - 40.5 °F 13% 29.97 in 10.0 mi SSE 9.2 mph - N/A   Clear
6:35 PM 98.8 °F - 40.3 °F 13% 29.96 in 10.0 mi ESE 10.4 mph - N/A   Clear
6:55 PM 98.2 °F - 41.0 °F 14% 29.96 in 10.0 mi SSE 8.1 mph 17.3 mph N/A   Clear
7:15 PM 97.9 °F - 40.1 °F 14% 29.96 in 10.0 mi SE 8.1 mph - N/A   Clear
7:35 PM 97.3 °F - 40.5 °F 14% 29.96 in 10.0 mi SSE 11.5 mph - N/A   Clear
7:55 PM 96.8 °F - 40.1 °F 14% 29.96 in 10.0 mi South 10.4 mph - N/A   Clear
8:15 PM 96.1 °F - 39.6 °F 14% 29.96 in 10.0 mi SE 9.2 mph - N/A   Clear
8:35 PM 95.4 °F - 39.6 °F 14% 29.96 in 10.0 mi SE 9.2 mph - N/A   Clear
8:55 PM 94.5 °F - 39.2 °F 15% 29.96 in 10.0 mi SE 5.8 mph - N/A   Clear
9:15 PM 93.6 °F - 39.2 °F 15% 29.97 in 10.0 mi SE 4.6 mph - N/A   Clear
9:35 PM 92.7 °F - 39.2 °F 15% 29.97 in 10.0 mi SE 4.6 mph - N/A   Clear
9:55 PM 91.8 °F - 40.3 °F 17% 29.98 in 10.0 mi ESE 5.8 mph - N/A   Clear
10:15 PM 90.5 °F - 40.6 °F 17% 29.99 in 10.0 mi East 4.6 mph - N/A   Clear
10:35 PM 89.6 °F - 41.9 °F 19% 30.00 in 10.0 mi ESE 4.6 mph - N/A   Clear
10:55 PM 88.7 °F - 42.4 °F 20% 30.01 in 10.0 mi ESE 5.8 mph - N/A   Clear
11:15 PM 87.8 °F - 43.0 °F 21% 30.01 in 10.0 mi SE 4.6 mph - N/A   Clear
11:35 PM 86.9 °F - 43.2 °F 22% 30.01 in 10.0 mi SE 8.1 mph - N/A   Clear
11:55 PM 86.9 °F - 43.2 °F 22% 30.01 in 10.0 mi SE 5.8 mph - N/A   Clear